CZ-6A DEB, 56656

Orbit data source: Space-Track

CZ-6A DEB, 56656 is space debris in SSO originally from a launch on Fri, 11 Nov 2022 UTC launched from the Taiyaun Space Center, China (TSC). Debris objects in space refer to the collection of defunct objects orbiting the Earth. Examples of debris include non-operational satellites, rocket bodies, and fragments generated from explosions, collisions, or faulty payload assembly.

Loading next visibility...
Identifier
56656, 2022-151AGG
Orbit
SSO
Country
Flag of CNCN / PRC
Related business
Manufacturer
SAST
Mission
Spacecraft
Bus & Motor
Unknown
Mass
Unknown
Launch date (UTC)
2022-11-11 (3 years ago)
Launch vehicle
Unknown
Launch site
Taiyaun Space Center, China (TSC)
Object type
Payload
Rocket body
Debris
Shape & HBR
Unknown shape, 0.1 m
Radar Cross Section
Small (<0.1 m²)

Expand to show TLE details & history
Last TLE update: 16 hours ago

TLE from 16 hours ago
0 CZ-6A DEB
1 56656U 22151AGG 26130.19622507 -.00000120  00000-0 -50282-4 0  9999
2 56656  98.8582 102.3402 0116309 176.8192 183.3738 13.99295553155102
Epoch: 2026-05-10T04:42Z
TLE epoch observation values (Epoch: 2026-05-10T04:42:33.846Z)
Latitude
0.00002°
Longitude
163.69639°
Altitude
983.598 km
Speed
7.317 km/s
True Right ascension
06h 49m 21s
True Declination
0° 00' 00"
Sunlit
Object was in daylight at epoch
Visualization orbit readout
Latitude
Unknown
Longitude
Unknown
Altitude
Unknown
Speed
Unknown
Apparent Right ascension
Unknown
Apparent Declination
Unknown
Sunlit
N/A
Visualization observer readout
Local Sidereal Time
04:35:05
Azimuth
Unknown
Elevation
Unknown
Doppler factor
Unknown
Orbital elements
Apogee altitude
978.003 km
Perigee altitude
808.854 km
Semi-major axis
7,271.565 km
Eccentricity
0.01163
Inclination
98.8582°
RAAN
102.3402°
Arg. of periapsis
176.8192°
True anomaly
183.29649°
Mean anomaly
183.3738°
Eccentric anomaly
183.33503°
Mean motion
3.50027 °/min
Orbital period
102.85 mins
BSTAR
-0.000050282
Loading maneuver chart data...
Computing Atmospheric mass density...
Loading historical data...
Loading historical data...
Loading historical data...
Loading historical data...
Loading historical data...
Loading historical data...
Loading historical data...

Documentation

Showing up to 5 results
|